User: anonymous   Login
Location: Unspecified
(0.0000°N, 0.0000°E)
Time: 20:25:08
(UTC+00:00)
Language:

STARLINK-4137 - Orbit

View from above orbital plane
View from above orbital plane
View from above satellite
View from above satellite

Ground track
Ground track

The orbit is defined by the following mean orbital elements,

1 53031U          26145.26106437 +.00000000 +00000-0 +20081-4 0 00007
2 53031  53.2125  90.3783 0001180  81.7115 278.4011 15.08841210    08
Epoch (UTC): 25 May 2026 06:15:55
Eccentricity: 0.0001180
inclination: 53.2125°
perigee height: 539 km
apogee height: 541 km
right ascension of ascending node: 90.3783°
argument of perigee: 81.7115°
revolutions per day: 15.08841210
mean anomaly at epoch: 278.4011°

The dashed part of the orbit path shows where the satellite is in the earth's shadow,  

DLR